Temperature
-0 -1 -2 -3 -4 -4 -5 -6 -6 -6 -6 -6 -7 -7 -6 -6 -6 -7 -7 -7 -8 -8 -8 -7 -6 -5 -4 -3 -1 -0 1 2 3 4 4 6 8 10 11 12 13 14 15
-1 -2 -3 -3 -4 -5 -5 -6 -6 -7 -7 -7 -7 -7 -7 -7 -7 -7 -8 -8 -8 -9 -9 -8 -7 -6 -5 -4 -2 -1 0 1 2 3 4 5 6 8 10 12 13 14 14
-2 -2 -3 -3 -4 -5 -5 -6 -6 -7 -7 -7 -8 -7 -7 -7 -8 -8 -8 -8 -9 -9 -10 -9 -9 -8 -6 -5 -3 -2 -1 1 2 3 3 4 5 7 9 11 12 13 14
-2 -2 -3 -3 -4 -5 -6 -6 -7 -7 -8 -8 -8 -8 -8 -8 -8 -8 -8 -9 -9 -10 -10 -10 -10 -9 -7 -6 -4 -3 -1 0 1 2 3 3 4 5 7 9 11 12 13
-2 -3 -3 -3 -4 -5 -6 -7 -7 -8 -8 -9 -9 -9 -8 -8 -8 -8 -9 -9 -10 -10 -10 -11 -10 -10 -9 -7 -5 -3 -2 -0 1 2 3 3 3 4 6 8 10 11 13
-2 -3 -3 -3 -4 -5 -6 -7 -8 -8 -9 -9 -10 -10 -9 -8 -8 -9 -9 -9 -10 -10 -10 -11 -11 -10 -9 -8 -6 -4 -2 -1 0 1 2 3 3 3 5 7 9 10 12
-2 -3 -3 -4 -5 -6 -7 -8 -9 -9 -9 -10 -10 -10 -10 -9 -9 -9 -10 -10 -10 -10 -11 -11 -11 -11 -10 -8 -7 -6 -4 -2 -0 1 1 2 2 3 4 5 7 9 11
-2 -3 -3 -4 -5 -6 -7 -8 -9 -10 -10 -10 -11 -11 -11 -11 -10 -9 -10 -10 -10 -10 -11 -11 -11 -11 -10 -9 -8 -7 -6 -4 -2 -1 0 1 2 2 3 4 6 8 10
-2 -3 -4 -5 -6 -7 -8 -9 -9 -10 -11 -11 -11 -11 -12 -12 -12 -11 -10 -10 -11 -11 -10 -10 -10 -10 -10 -9 -8 -7 -6 -5 -4 -2 -1 -0 1 2 3 4 5 7 9
-2 -3 -4 -5 -6 -7 -8 -9 -10 -10 -11 -11 -11 -11 -11 -12 -12 -12 -11 -11 -11 -11 -11 -11 -10 -10 -9 -9 -8 -7 -6 -6 -4 -3 -2 -1 0 1 2 3 4 6 8
-3 -4 -4 -5 -6 -7 -8 -9 -10 -10 -11 -11 -11 -11 -11 -11 -12 -13 -13 -12 -11 -11 -11 -11 -10 -10 -9 -9 -8 -7 -6 -6 -5 -4 -3 -2 -0 1 2 3 4 6 7
-3 -4 -5 -5 -6 -7 -8 -9 -10 -10 -11 -11 -11 -11 -11 -12 -12 -12 -13 -13 -13 -12 -11 -11 -10 -10 -9 -9 -9 -8 -7 -6 -5 -4 -3 -2 -1 -0 1 2 3 5 7
-3 -4 -5 -6 -7 -8 -8 -9 -10 -10 -11 -11 -11 -11 -11 -11 -12 -12 -13 -13 -13 -13 -12 -11 -10 -10 -10 -9 -9 -8 -7 -6 -5 -5 -4 -3 -2 -2 -1 0 2 4 6
-3 -4 -5 -6 -7 -8 -8 -9 -10 -10 -11 -11 -11 -11 -11 -11 -11 -12 -13 -13 -14 -13 -12 -11 -11 -10 -10 -9 -9 -9 -8 -7 -6 -5 -5 -4 -3 -3 -2 -1 0 3 5
-3 -4 -5 -6 -7 -8 -8 -9 -9 -10 -10 -10 -11 -11 -11 -11 -11 -12 -12 -13 -13 -14 -13 -12 -11 -10 -10 -10 -9 -9 -8 -7 -7 -6 -5 -5 -4 -4 -3 -2 -1 2 4
-4 -4 -5 -6 -7 -7 -8 -9 -9 -9 -9 -9 -10 -10 -10 -11 -11 -11 -12 -12 -13 -13 -13 -12 -11 -10 -10 -10 -10 -9 -9 -8 -7 -6 -6 -5 -5 -4 -3 -2 -1 1 3
-4 -4 -5 -6 -7 -7 -8 -8 -9 -9 -9 -9 -9 -10 -10 -11 -11 -11 -12 -12 -12 -12 -13 -12 -11 -11 -10 -10 -10 -9 -9 -8 -8 -7 -6 -5 -5 -4 -4 -3 -1 1 2
-4 -5 -5 -6 -7 -7 -8 -8 -9 -9 -9 -9 -9 -10 -10 -10 -11 -11 -12 -12 -12 -12 -12 -12 -11 -11 -11 -10 -10 -10 -9 -9 -8 -7 -6 -6 -5 -4 -3 -2 -1 0 2
-4 -5 -5 -6 -6 -7 -8 -8 -8 -8 -9 -9 -9 -10 -10 -11 -11 -11 -12 -12 -12 -11 -11 -12 -11 -11 -11 -10 -11 -10 -10 -9 -8 -7 -6 -5 -5 -4 -3 -2 -1 0 2
-4 -4 -5 -6 -6 -7 -7 -8 -8 -8 -8 -9 -9 -10 -10 -11 -11 -11 -11 -11 -11 -11 -11 -11 -11 -11 -11 -11 -11 -11 -10 -9 -8 -7 -6 -5 -5 -4 -3 -2 -1 1 2
-4 -4 -5 -5 -6 -7 -7 -8 -8 -9 -8 -9 -9 -9 -10 -11 -11 -11 -11 -11 -11 -11 -11 -11 -12 -12 -12 -12 -11 -11 -11 -10 -8 -7 -6 -6 -5 -4 -3 -2 -1 1 2
-4 -4 -5 -5 -6 -6 -7 -8 -9 -8 -8 -9 -9 -10 -10 -11 -11 -11 -11 -11 -11 -11 -11 -11 -12 -12 -12 -12 -12 -12 -12 -11 -11 -8 -8 -6 -5 -4 -3 -1 -0 1 2
-4 -4 -5 -5 -5 -6 -7 -8 -9 -8 -8 -9 -9 -10 -10 -11 -11 -11 -11 -11 -11 -11 -12 -12 -12 -12 -12 -12 -12 -12 -11 -11 -11 -10 -9 -6 -4 -4 -2 -1 -0 1 2
-3 -4 -4 -5 -5 -5 -6 -8 -9 -9 -9 -9 -9 -10 -10 -10 -10 -10 -10 -11 -11 -11 -12 -12 -12 -12 -12 -12 -12 -11 -11 -11 -10 -9 -10 -8 -4 -3 -2 -1 -0 1 2
-3 -4 -4 -5 -5 -5 -6 -8 -9 -9 -9 -9 -9 -10 -10 -10 -10 -10 -10 -11 -11 -11 -12 -12 -12 -12 -12 -12 -12 -12 -11 -12 -11 -9 -9 -8 -6 -4 -2 -1 -0 1 2
-3 -4 -4 -5 -5 -5 -6 -7 -9 -9 -9 -9 -9 -10 -10 -10 -10 -10 -10 -11 -11 -11 -12 -12 -13 -13 -13 -13 -12 -12 -12 -12 -12 -10 -8 -8 -6 -5 -2 -0 0 1 2
Wind_Speed
5 5 6 8 10 10 10 12 13 13 13 14 16 18 19 21 21 22 23 30 33 33 33 34 34 35 35 36 36 35 33 32 31 30 28 27 26 24 22 21 20 20 22
1 1 4 6 8 9 11 12 13 11 11 12 13 17 19 19 19 22 24 26 30 32 33 33 34 34 35 36 37 36 35 33 32 31 29 27 26 25 23 21 21 20 21
3 2 3 6 8 10 11 13 12 11 11 12 11 16 17 17 19 22 23 23 24 28 31 31 32 33 35 36 37 37 36 34 32 31 29 27 26 26 24 22 21 20 20
4 4 4 6 8 10 10 10 7 5 6 6 7 10 14 16 19 21 21 22 23 23 26 30 32 34 34 35 36 36 36 35 33 31 29 27 26 26 25 24 22 21 20
6 5 5 7 8 9 9 9 7 5 6 8 8 8 9 12 16 19 19 22 22 23 23 28 31 32 33 34 35 34 34 35 33 31 29 27 26 26 26 25 23 22 21
7 6 6 7 8 6 5 5 6 6 6 7 10 10 9 11 13 12 16 19 21 23 24 24 24 26 30 32 33 32 31 32 31 29 27 26 26 26 26 25 24 23 22
7 6 6 7 7 5 5 6 5 7 5 5 6 10 10 9 9 8 11 14 17 22 22 23 22 21 21 27 30 31 29 28 25 23 23 24 24 25 25 25 24 24 22
7 6 6 6 7 5 5 6 5 4 5 5 5 9 8 10 9 13 8 10 11 16 17 21 21 21 20 19 24 30 29 27 25 22 21 22 23 24 24 25 24 24 23
7 7 7 7 7 5 5 6 7 6 6 6 4 4 7 8 14 11 13 11 9 11 11 16 19 20 20 19 21 25 27 26 24 23 22 23 23 23 23 24 24 23 23
7 8 8 8 8 7 5 6 7 6 6 7 6 5 6 7 8 11 12 9 11 13 12 13 15 18 19 18 20 24 26 25 24 24 24 25 25 23 22 23 24 23 22
8 8 9 9 8 8 8 8 7 7 5 7 7 6 7 7 7 7 14 18 16 12 11 12 11 13 17 16 16 20 23 23 24 25 25 26 25 23 22 22 23 22 21
6 9 10 10 10 10 9 9 8 8 7 8 8 7 7 7 8 7 10 15 17 16 15 13 11 10 13 13 16 22 23 22 22 23 24 24 23 22 22 22 22 22 21
4 6 9 9 10 12 12 12 7 8 7 8 8 8 8 8 8 8 10 14 17 16 14 11 8 9 12 13 16 22 21 22 21 21 21 20 20 20 21 23 23 24 22
6 9 11 11 12 13 13 11 7 8 7 8 11 10 9 9 8 8 7 10 15 15 14 11 9 7 10 14 17 23 17 22 22 21 19 18 19 20 21 23 24 25 23
7 10 11 10 12 12 12 10 7 9 9 9 10 11 10 10 9 8 8 9 10 16 17 13 9 8 10 13 18 17 15 21 23 22 20 20 20 22 23 24 25 25 23
9 8 8 8 9 10 10 7 8 9 10 11 10 11 12 10 9 9 9 9 10 12 15 12 12 12 11 14 20 17 17 22 21 21 21 22 23 24 25 25 25 25 24
8 7 7 7 8 9 8 8 10 10 11 13 13 12 14 13 11 10 9 9 10 11 15 15 13 11 11 12 13 13 15 13 13 20 22 23 24 25 26 26 25 25 24
7 8 7 8 9 9 9 9 12 12 12 14 15 15 16 14 13 11 10 11 11 12 14 17 14 10 10 11 11 11 11 12 11 21 23 24 25 25 25 25 25 24 23
7 7 7 8 9 10 10 10 11 13 14 15 16 16 16 15 14 12 12 11 11 13 12 14 14 10 9 9 10 11 11 10 13 16 20 22 23 23 23 23 24 24 23
7 8 8 9 10 10 10 11 12 13 14 15 15 14 14 13 13 13 12 13 13 13 12 11 12 11 9 8 7 9 11 9 10 12 15 16 18 20 22 22 23 23 22
8 8 8 9 10 9 9 11 12 13 12 11 10 10 11 14 17 15 13 10 10 10 10 10 12 12 10 7 7 7 11 11 11 9 7 8 9 9 11 16 19 21 20
7 7 8 9 10 10 17 22 17 9 8 8 9 9 10 13 17 21 23 22 18 12 10 10 11 11 10 9 9 10 10 11 8 3 6 11 9 10 10 9 16 19 19
7 8 8 9 11 13 20 21 21 11 6 7 8 8 9 11 16 10 18 21 17 20 20 13 12 12 12 11 11 13 11 11 11 7 9 10 6 10 10 11 18 20 20
7 8 9 9 10 12 18 19 20 8 7 8 9 9 10 11 14 16 13 9 10 12 14 11 10 12 13 12 13 13 13 12 11 9 7 7 6 7 9 8 16 19 19
8 8 8 9 9 11 16 17 17 6 7 8 8 9 10 10 20 24 11 8 10 10 13 16 19 17 19 19 15 9 7 8 10 6 4 5 5 6 7 8 11 18 19
8 8 8 7 8 8 13 16 16 5 7 7 7 8 14 17 21 20 9 7 11 10 8 11 13 15 12 13 16 8 5 7 7 5 3 3 4 4 5 4 5 8 11
Wind_Direction
43 18 354 341 335 332 328 325 324 324 327 330 331 332 326 322 319 319 319 318 317 314 310 307 304 300 296 291 287 283 279 274 270 268 268 269 271 274 279 282 279 266 243
101 331 316 319 322 325 325 325 320 321 321 322 323 323 318 314 314 315 315 314 314 313 310 306 302 300 297 292 286 281 277 273 267 263 262 263 266 270 275 279 278 272 253
194 230 276 300 313 324 327 326 322 326 327 327 320 317 314 311 310 310 310 308 308 310 308 306 303 300 298 295 286 279 275 272 266 261 257 259 263 266 270 275 278 274 261
213 233 267 290 309 320 323 319 317 318 314 312 311 311 311 310 308 306 303 303 304 303 303 303 302 299 299 299 291 279 271 270 266 259 254 255 259 263 266 270 275 276 266
225 243 268 285 302 310 315 320 329 310 310 315 313 308 309 307 302 301 298 298 297 297 298 299 299 300 299 298 296 286 272 267 264 258 252 252 256 260 263 268 272 276 270
233 253 269 280 294 299 302 302 302 302 295 299 313 314 305 300 297 291 290 295 295 296 296 295 295 295 297 298 299 297 283 270 265 260 253 250 252 257 261 265 269 273 272
242 261 273 282 287 282 283 292 295 300 298 296 306 315 308 296 293 291 289 289 292 294 291 293 293 290 293 297 301 302 297 287 277 269 261 255 252 255 259 263 268 270 272
250 260 264 270 279 279 286 292 294 289 294 313 305 318 315 313 313 315 293 293 292 293 294 295 293 289 288 290 293 299 302 294 285 279 276 270 261 255 257 261 267 268 269
254 261 271 273 275 267 271 281 285 277 291 298 267 274 303 308 317 307 308 301 295 295 294 295 291 290 290 290 290 294 295 292 285 281 280 278 271 261 258 261 266 270 268
254 264 271 274 271 267 263 276 293 277 280 294 295 252 250 275 298 308 312 303 300 303 301 299 295 293 289 287 286 290 293 289 283 279 276 273 269 263 260 260 265 270 269
254 266 270 269 264 264 267 271 277 274 267 274 285 285 283 281 263 286 306 312 313 308 307 301 294 292 293 291 292 292 294 290 283 277 273 272 270 266 264 264 267 274 277
254 262 266 262 262 264 267 269 266 265 265 268 277 276 276 278 290 289 296 304 307 308 308 303 298 292 297 299 301 305 304 299 292 281 274 272 272 272 272 273 278 284 285
241 250 259 259 261 264 268 268 260 260 261 265 269 275 272 268 272 278 288 298 301 302 302 300 296 298 306 312 309 311 311 309 304 293 281 275 275 276 277 279 283 286 290
235 248 253 255 259 265 271 267 261 261 265 262 275 274 274 273 265 263 269 289 299 302 301 298 303 290 306 309 309 314 312 311 305 298 292 286 282 280 278 277 278 282 286
242 246 247 252 260 265 265 263 261 263 266 267 270 272 271 272 267 261 258 262 279 296 300 302 300 290 303 306 309 311 312 307 302 298 295 291 287 281 275 273 273 275 279
241 246 249 253 259 263 263 258 263 266 266 271 271 269 270 271 268 265 261 259 259 272 285 292 294 293 297 305 308 314 307 306 305 300 294 289 283 277 273 269 268 269 271
235 238 245 250 257 260 259 260 266 270 269 273 274 272 272 272 270 268 265 263 265 266 277 287 287 287 286 292 298 299 299 295 297 298 292 285 280 273 268 265 264 264 264
233 240 247 254 260 264 261 262 272 278 273 274 275 274 275 276 271 268 267 267 270 270 272 282 288 288 283 286 289 292 300 301 298 294 289 284 280 274 267 261 259 259 258
233 244 249 257 262 264 266 266 267 272 273 274 275 276 276 275 273 269 268 270 272 275 272 278 286 289 285 283 288 292 292 290 292 291 291 287 281 276 271 261 255 253 253
234 246 253 259 264 265 267 271 271 271 273 274 274 274 273 271 268 267 270 268 271 276 279 282 287 289 286 278 279 295 300 294 293 294 288 283 281 281 276 268 256 249 248
239 247 258 266 269 271 269 267 266 267 273 278 276 271 273 280 281 281 279 272 276 283 288 290 290 291 290 290 288 291 295 298 294 280 292 296 295 289 281 271 262 249 244
240 250 258 266 274 278 289 295 297 282 282 282 280 278 280 284 290 296 299 299 297 297 294 289 289 286 285 281 284 285 287 291 295 288 315 300 290 280 272 260 254 251 243
238 251 259 265 271 280 294 299 302 304 280 277 277 282 292 294 302 290 292 295 294 297 299 296 291 286 285 282 279 279 273 270 270 279 299 292 272 272 268 257 253 246 242
234 248 259 265 271 282 296 302 305 308 277 274 276 277 281 282 289 290 283 272 267 276 286 288 276 276 277 274 266 267 269 271 271 267 256 271 278 274 275 261 256 247 239
234 245 255 262 268 282 298 302 307 292 285 282 281 282 289 283 295 304 307 288 286 286 296 300 301 300 299 299 295 288 281 278 283 278 234 253 282 289 275 259 246 240 235
231 245 256 256 264 274 294 303 308 294 293 289 286 289 307 311 312 324 323 300 298 298 296 302 304 304 298 295 295 284 266 267 273 280 251 270 289 308 296 264 236 229 224
Height
1559 1556 1552 1547 1543 1539 1535 1531 1528 1524 1521 1517 1514 1511 1508 1505 1501 1497 1492 1488 1484 1480 1477 1474 1471 1469 1467 1465 1465 1465 1465 1466 1466 1467 1468 1469 1472 1475 1478 1481 1485 1489 1493
1555 1551 1547 1543 1539 1535 1531 1528 1524 1520 1517 1513 1510 1507 1504 1501 1497 1492 1488 1482 1477 1473 1469 1466 1464 1461 1458 1456 1455 1455 1456 1457 1458 1459 1460 1461 1463 1466 1469 1473 1477 1481 1485
1550 1547 1543 1540 1536 1532 1528 1524 1521 1517 1514 1510 1506 1503 1500 1496 1492 1488 1483 1477 1472 1466 1462 1459 1456 1453 1450 1447 1446 1446 1446 1448 1449 1451 1453 1454 1455 1457 1461 1464 1469 1473 1477
1547 1543 1540 1536 1532 1528 1524 1520 1517 1513 1510 1506 1502 1499 1496 1492 1488 1483 1478 1473 1467 1461 1456 1452 1449 1445 1442 1438 1437 1437 1437 1438 1440 1442 1444 1446 1447 1449 1452 1456 1460 1465 1469
1543 1540 1536 1533 1529 1525 1521 1517 1514 1510 1507 1503 1498 1495 1491 1487 1482 1478 1473 1468 1462 1457 1450 1445 1441 1437 1433 1430 1428 1428 1429 1430 1431 1434 1436 1438 1439 1441 1444 1447 1451 1456 1461
1539 1536 1533 1529 1525 1521 1518 1514 1511 1508 1504 1500 1495 1491 1486 1482 1477 1472 1467 1462 1457 1451 1445 1439 1433 1429 1426 1423 1420 1419 1419 1421 1423 1424 1427 1429 1432 1434 1436 1439 1443 1447 1452
1536 1532 1529 1525 1521 1517 1514 1511 1507 1503 1501 1497 1492 1485 1481 1478 1473 1467 1462 1457 1451 1446 1440 1433 1427 1423 1418 1415 1412 1410 1410 1411 1413 1415 1417 1420 1424 1426 1428 1431 1435 1439 1444
1531 1528 1525 1521 1517 1514 1510 1507 1504 1500 1497 1495 1490 1483 1476 1472 1467 1462 1457 1451 1446 1441 1434 1428 1422 1417 1413 1409 1406 1404 1402 1402 1404 1406 1408 1411 1415 1418 1421 1424 1427 1431 1436
1527 1524 1520 1517 1513 1510 1506 1503 1500 1496 1492 1490 1488 1484 1478 1469 1463 1456 1451 1445 1441 1435 1429 1423 1417 1412 1408 1405 1401 1399 1398 1398 1398 1400 1401 1403 1407 1410 1413 1417 1420 1423 1428
1522 1519 1516 1512 1509 1505 1502 1499 1496 1493 1489 1485 1483 1480 1476 1470 1463 1453 1445 1440 1435 1430 1425 1418 1412 1407 1403 1399 1397 1395 1394 1394 1394 1395 1396 1398 1401 1403 1406 1409 1413 1417 1421
1517 1514 1511 1507 1504 1500 1497 1494 1491 1488 1485 1481 1477 1474 1470 1466 1461 1455 1444 1434 1427 1423 1420 1415 1408 1403 1398 1395 1392 1391 1390 1389 1389 1390 1391 1392 1394 1397 1399 1403 1406 1410 1413
1513 1509 1506 1503 1499 1496 1492 1489 1486 1482 1479 1475 1472 1468 1464 1460 1455 1450 1442 1433 1424 1416 1413 1410 1405 1400 1395 1392 1389 1386 1385 1384 1383 1384 1385 1386 1388 1390 1392 1394 1398 1401 1405
1508 1505 1501 1498 1494 1491 1487 1484 1480 1476 1473 1469 1465 1462 1458 1454 1450 1445 1439 1430 1422 1412 1408 1404 1401 1397 1393 1389 1385 1382 1380 1378 1378 1378 1380 1381 1382 1383 1384 1386 1388 1392 1396
1502 1499 1496 1492 1489 1485 1482 1478 1474 1471 1467 1463 1459 1455 1451 1447 1444 1440 1435 1428 1418 1408 1402 1399 1396 1393 1389 1385 1381 1378 1375 1373 1372 1372 1373 1374 1375 1376 1378 1379 1381 1384 1387
1496 1494 1490 1487 1483 1480 1476 1472 1468 1464 1460 1456 1452 1448 1444 1440 1436 1432 1428 1424 1418 1407 1397 1392 1390 1387 1384 1380 1377 1374 1370 1368 1367 1367 1367 1368 1369 1370 1372 1373 1374 1377 1380
1491 1488 1485 1481 1478 1474 1471 1467 1462 1458 1454 1450 1446 1441 1437 1432 1428 1424 1420 1417 1412 1406 1396 1388 1385 1382 1379 1376 1372 1369 1365 1363 1361 1360 1361 1362 1363 1364 1364 1365 1367 1370 1373
1486 1482 1479 1476 1472 1469 1465 1461 1457 1453 1448 1444 1439 1434 1429 1425 1420 1416 1412 1409 1405 1400 1392 1383 1380 1376 1373 1370 1366 1362 1359 1356 1354 1353 1354 1354 1355 1356 1356 1358 1360 1363 1367
1480 1477 1474 1470 1467 1463 1459 1455 1451 1447 1442 1437 1432 1426 1421 1416 1412 1408 1405 1401 1397 1393 1387 1379 1374 1370 1367 1364 1360 1356 1353 1350 1347 1346 1346 1346 1346 1347 1348 1350 1353 1356 1360
1474 1471 1468 1465 1461 1457 1453 1449 1445 1440 1436 1431 1425 1419 1413 1409 1405 1401 1398 1394 1390 1386 1381 1375 1368 1364 1360 1357 1353 1350 1346 1343 1340 1338 1337 1337 1337 1338 1340 1342 1345 1349 1354
1468 1466 1463 1459 1455 1451 1447 1442 1438 1434 1430 1424 1419 1413 1407 1403 1398 1394 1391 1387 1383 1379 1374 1369 1363 1358 1354 1350 1348 1343 1338 1335 1332 1331 1329 1329 1329 1330 1331 1334 1338 1341 1346
1462 1460 1457 1453 1450 1445 1441 1436 1432 1428 1424 1418 1413 1408 1402 1397 1393 1389 1385 1381 1377 1372 1367 1362 1357 1352 1348 1345 1342 1338 1333 1328 1325 1323 1322 1322 1321 1321 1323 1326 1329 1334 1339
1456 1454 1451 1448 1444 1440 1435 1431 1428 1424 1419 1414 1408 1402 1397 1392 1387 1383 1379 1375 1372 1367 1361 1356 1350 1346 1341 1338 1335 1332 1328 1324 1320 1319 1317 1315 1315 1314 1316 1319 1323 1327 1332
1450 1448 1445 1442 1438 1434 1430 1425 1423 1419 1414 1409 1403 1397 1391 1386 1382 1377 1372 1368 1364 1360 1356 1351 1344 1339 1335 1331 1329 1325 1323 1320 1316 1314 1313 1307 1309 1308 1310 1313 1316 1321 1326
1444 1442 1440 1437 1433 1429 1424 1420 1417 1414 1409 1404 1399 1393 1387 1381 1377 1371 1366 1361 1357 1353 1348 1343 1338 1332 1328 1325 1322 1320 1317 1314 1311 1309 1309 1304 1303 1303 1305 1306 1310 1314 1319
1437 1436 1434 1431 1427 1423 1419 1415 1413 1408 1404 1399 1394 1389 1383 1378 1372 1367 1362 1356 1351 1346 1341 1336 1331 1326 1322 1318 1316 1314 1311 1309 1305 1303 1304 1302 1299 1299 1299 1300 1304 1308 1313
1431 1430 1428 1426 1422 1418 1414 1410 1408 1404 1399 1394 1389 1385 1380 1374 1369 1364 1358 1352 1346 1340 1334 1328 1323 1318 1314 1310 1308 1307 1304 1303 1301 1299 1298 1299 1297 1297 1296 1297 1300 1303 1308